User: anonymous   Login
Location: Kelshall
(52.0000°N, 0.0500°W)
Time: 12:53:23
(UTC+00:00)
Language:

Resurs 01 Rocket - Orbit

View from above orbital plane
View from above orbital plane
View from above satellite
View from above satellite

Ground track
Ground track

The orbit data is extracted from the following two-line orbital elements,

1 23343U 94074B   20330.92049339 +.00000066 +00000-0 +16752-4 0  9993
2 23343 097.9784 022.3069 0006781 002.5655 170.1904 14.76847536402243
Epoch (UTC): 25 November 2020 22:05:30
Eccentricity: 0.0006781
inclination: 97.9784°
perigee height: 634 km
apogee height: 644 km
right ascension of ascending node: 22.3069°
argument of perigee: 2.5655°
revolutions per day: 14.76847536
mean anomaly at epoch: 170.1904°
orbit number at epoch: 40224

The dashed part of the orbit path shows where the satellite is in the earth's shadow,  

DLR